When you browse on this site, cookies collect data to enhance your experience and personalize the content and advertising you see.
Visit our Privacy Policy to learn more. By continuing to use the site, you agree to this use of cookies and data.
  • In Hungary
  • List of Countries
  • For 7 days
  • Water Temperature
  • Weather Map
  • News
  • Weather Widgets
  • user-avatar
    Login

    Hourly Weather Bartosze

    Today, 15 December, Sunday

    Time Temperature Precipitation Wind Pressure Humidity
    00:00 +1°C° 0.6 mm 5 mps 734 mmHg 95%
    01:00 +1°C° 0 mm 5 mps 734 mmHg 95%
    02:00 +1°C° 0.1 mm 5 mps 735 mmHg 91%
    03:00 +1°C° 0.1 mm 5 mps 735 mmHg 88%
    04:00 +2°C° 0.1 mm 5 mps 736 mmHg 85%
    05:00 +1°C° 0 mm 5 mps 736 mmHg 85%
    06:00 +1°C° 0 mm 5 mps 737 mmHg 85%
    07:00 +1°C° 0 mm 5 mps 738 mmHg 85%
    08:00 +1°C° 0 mm 5 mps 738 mmHg 85%
    09:00 +1°C° 0 mm 4 mps 739 mmHg 84%
    10:00 +1°C° 0 mm 4 mps 739 mmHg 84%
    11:00 +2°C° 0 mm 5 mps 740 mmHg 82%
    12:00 +2°C° 0 mm 5 mps 740 mmHg 79%
    13:00 +2°C° 0 mm 6 mps 741 mmHg 77%
    14:00 +2°C° 0 mm 6 mps 740 mmHg 77%
    15:00 +2°C° 0 mm 5 mps 740 mmHg 77%
    16:00 +1°C° 0 mm 5 mps 740 mmHg 77%
    17:00 +2°C° 0.3 mm 5 mps 740 mmHg 80%
    18:00 +2°C° 0.3 mm 5 mps 739 mmHg 83%
    19:00 +2°C° 0.3 mm 5 mps 739 mmHg 85%
    20:00 +3°C° 0 mm 5 mps 740 mmHg 84%
    21:00 +3°C° 0 mm 5 mps 741 mmHg 83%
    22:00 +3°C° 0 mm 5 mps 741 mmHg 81%
    23:00 +2°C° 0 mm 5 mps 742 mmHg 78%

    Tomorrow, 16 December, Monday

    Time Temperature Precipitation Wind Pressure Humidity
    00:00 +2°C° 0 mm 5 mps 743 mmHg 74%
    01:00 +1°C° 0 mm 5 mps 743 mmHg 71%
    02:00 +1°C° 0 mm 5 mps 744 mmHg 74%
    03:00 +1°C° 0 mm 5 mps 744 mmHg 77%
    04:00 +1°C° 0 mm 5 mps 744 mmHg 79%
    05:00 +1°C° 0 mm 5 mps 745 mmHg 81%
    06:00 0°C° 0 mm 5 mps 745 mmHg 82%
    07:00 0°C° 0 mm 5 mps 746 mmHg 83%
    08:00 0°C° 0 mm 4 mps 746 mmHg 83%
    09:00 +1°C° 0 mm 4 mps 747 mmHg 83%
    10:00 +1°C° 0 mm 4 mps 747 mmHg 83%
    11:00 +3°C° 0 mm 4 mps 747 mmHg 82%
    12:00 +3°C° 0 mm 4 mps 748 mmHg 81%
    13:00 +4°C° 0 mm 3 mps 748 mmHg 80%
    14:00 +3°C° 0 mm 3 mps 748 mmHg 83%
    15:00 +2°C° 0 mm 3 mps 748 mmHg 87%
    16:00 +3°C° 0 mm 2 mps 748 mmHg 90%
    17:00 +3°C° 0 mm 2 mps 748 mmHg 91%
    18:00 +2°C° 0 mm 3 mps 748 mmHg 92%
    19:00 +2°C° 0 mm 3 mps 748 mmHg 93%
    20:00 +2°C° 0 mm 3 mps 748 mmHg 93%
    21:00 +2°C° 0 mm 3 mps 748 mmHg 94%
    22:00 +2°C° 0 mm 3 mps 747 mmHg 94%
    23:00 +3°C° 0 mm 3 mps 747 mmHg 93%

    Day after tomorrow, 17 December, Tuesday

    Time Temperature Precipitation Wind Pressure Humidity
    00:00 +3°C° 0 mm 4 mps 747 mmHg 92%
    01:00 +4°C° 0 mm 4 mps 747 mmHg 91%
    02:00 +4°C° 0 mm 4 mps 746 mmHg 91%
    03:00 +4°C° 0 mm 4 mps 746 mmHg 90%
    04:00 +4°C° 0 mm 4 mps 746 mmHg 90%
    05:00 +3°C° 0 mm 4 mps 746 mmHg 90%
    06:00 +3°C° 0 mm 4 mps 745 mmHg 90%
    07:00 +3°C° 0 mm 4 mps 745 mmHg 90%
    08:00 +3°C° 0 mm 4 mps 745 mmHg 89%
    09:00 +4°C° 0 mm 4 mps 746 mmHg 88%
    10:00 +4°C° 0 mm 4 mps 746 mmHg 87%
    11:00 +4°C° 0 mm 3 mps 746 mmHg 87%
    12:00 +5°C° 0 mm 3 mps 745 mmHg 87%
    13:00 +5°C° 0 mm 3 mps 745 mmHg 87%
    14:00 +5°C° 0 mm 3 mps 745 mmHg 89%
    15:00 +5°C° 0 mm 2 mps 746 mmHg 92%
    16:00 +5°C° 0 mm 2 mps 746 mmHg 94%
    17:00 +5°C° 0 mm 2 mps 746 mmHg 93%
    18:00 +4°C° 0 mm 2 mps 746 mmHg 93%
    19:00 +4°C° 0 mm 2 mps 746 mmHg 93%
    20:00 +4°C° 0 mm 2 mps 746 mmHg 93%
    21:00 +4°C° 0 mm 2 mps 747 mmHg 93%
    22:00 +4°C° 0 mm 2 mps 747 mmHg 92%
    23:00 +4°C° 0 mm 2 mps 747 mmHg 93%

    18 December, Wednesday

    Time Temperature Precipitation Wind Pressure Humidity
    00:00 +4°C° 0 mm 2 mps 747 mmHg 93%
    01:00 +4°C° 0 mm 2 mps 747 mmHg 93%
    02:00 +4°C° 0 mm 2 mps 747 mmHg 93%
    03:00 +4°C° 0 mm 2 mps 747 mmHg 93%
    04:00 +4°C° 0 mm 2 mps 747 mmHg 93%
    05:00 +4°C° 0 mm 2 mps 747 mmHg 92%
    06:00 +4°C° 0 mm 2 mps 747 mmHg 92%
    07:00 +4°C° 0 mm 2 mps 747 mmHg 92%
    08:00 +5°C° 0 mm 2 mps 747 mmHg 91%
    09:00 +5°C° 0 mm 2 mps 747 mmHg 89%
    10:00 +5°C° 0 mm 3 mps 747 mmHg 88%
    11:00 +6°C° 0 mm 2 mps 747 mmHg 87%
    12:00 +6°C° 0 mm 2 mps 747 mmHg 86%
    13:00 +7°C° 0 mm 2 mps 746 mmHg 86%
    14:00 +6°C° 0 mm 2 mps 746 mmHg 89%
    15:00 +4°C° 0 mm 3 mps 746 mmHg 92%
    16:00 +4°C° 0 mm 3 mps 746 mmHg 95%
    17:00 +4°C° 0 mm 3 mps 746 mmHg 96%
    18:00 +4°C° 0 mm 3 mps 746 mmHg 96%
    19:00 +4°C° 0 mm 3 mps 746 mmHg 97%
    20:00 +4°C° 0 mm 3 mps 746 mmHg 96%
    21:00 +4°C° 0 mm 3 mps 746 mmHg 95%
    22:00 +4°C° 0 mm 2 mps 746 mmHg 95%
    23:00 +4°C° 0 mm 2 mps 746 mmHg 95%

    19 December, Thursday

    Time Temperature Precipitation Wind Pressure Humidity
    00:00 +4°C° 0 mm 2 mps 746 mmHg 95%
    01:00 +3°C° 0 mm 2 mps 746 mmHg 95%
    02:00 +3°C° 0 mm 2 mps 746 mmHg 95%
    03:00 +3°C° 0 mm 2 mps 746 mmHg 95%
    04:00 +3°C° 0 mm 2 mps 746 mmHg 95%
    05:00 +3°C° 0 mm 2 mps 746 mmHg 95%
    06:00 +3°C° 0 mm 2 mps 746 mmHg 94%
    07:00 +3°C° 0 mm 2 mps 746 mmHg 94%
    08:00 +3°C° 0 mm 2 mps 747 mmHg 92%
    09:00 +3°C° 0 mm 2 mps 747 mmHg 90%
    10:00 +4°C° 0 mm 2 mps 748 mmHg 89%
    11:00 +4°C° 0 mm 2 mps 747 mmHg 88%
    12:00 +4°C° 0 mm 2 mps 747 mmHg 87%
    13:00 +4°C° 0 mm 2 mps 747 mmHg 86%
    14:00 +5°C° 0 mm 1 mps 747 mmHg 88%
    15:00 +4°C° 0 mm 1 mps 748 mmHg 90%
    16:00 +4°C° 0 mm 1 mps 748 mmHg 92%
    17:00 +3°C° 0 mm 1 mps 748 mmHg 92%
    18:00 +2°C° 0 mm 2 mps 748 mmHg 92%
    19:00 +2°C° 0 mm 2 mps 748 mmHg 92%
    20:00 +1°C° 0 mm 2 mps 748 mmHg 92%
    21:00 +1°C° 0 mm 2 mps 748 mmHg 91%
    22:00 +1°C° 0 mm 2 mps 748 mmHg 90%
    23:00 -1°C° 0 mm 2 mps 748 mmHg 90%

    20 December, Friday

    Time Temperature Precipitation Wind Pressure Humidity
    00:00 -1°C° 0 mm 2 mps 748 mmHg 90%
    01:00 -1°C° 0 mm 3 mps 748 mmHg 90%
    02:00 -1°C° 0 mm 3 mps 747 mmHg 88%
    03:00 -1°C° 0 mm 3 mps 747 mmHg 87%
    04:00 -1°C° 0 mm 3 mps 747 mmHg 86%
    05:00 -2°C° 0 mm 4 mps 747 mmHg 84%
    06:00 -1°C° 0 mm 4 mps 746 mmHg 83%
    07:00 -1°C° 0 mm 4 mps 746 mmHg 82%
    08:00 -1°C° 0 mm 4 mps 746 mmHg 80%
    09:00 -1°C° 0 mm 5 mps 746 mmHg 78%
    10:00 0°C° 0 mm 5 mps 746 mmHg 76%
    11:00 0°C° 0 mm 5 mps 745 mmHg 77%
    12:00 0°C° 0 mm 5 mps 745 mmHg 77%
    13:00 0°C° 0 mm 4 mps 744 mmHg 78%
    14:00 0°C° 0 mm 4 mps 744 mmHg 81%
    15:00 0°C° 0 mm 5 mps 744 mmHg 84%
    16:00 0°C° 0 mm 5 mps 743 mmHg 86%
    17:00 0°C° 0 mm 5 mps 743 mmHg 87%
    18:00 0°C° 0 mm 5 mps 743 mmHg 88%
    19:00 +1°C° 0 mm 5 mps 742 mmHg 89%
    20:00 +1°C° 0 mm 5 mps 742 mmHg 91%
    21:00 +1°C° 0 mm 5 mps 742 mmHg 93%
    22:00 +1°C° 0 mm 5 mps 741 mmHg 94%
    23:00 +2°C° 0 mm 5 mps 741 mmHg 95%
    Show more